Location: Little Italy
(37.8008°N, 122.4108°W)
Time: 08:23:04
(UTC+00:00)

Cosmos 1300 - Pass Details

Date: 29 October 2020
Orbit: 511 x 514 km, 82.5° (Epoch: 02 December)

Event Time Altitude Azimuth Distance (km) Brightness Sun altitude
Exits shadow 12:45:52 - 356° (N) 2,005 5.6 -21.6°
Reaches altitude 10° 12:46:30 10° 356° (N) 1,743 5.3 -21.5°
Maximum altitude 12:50:19 75° 82° (E) 536 2.8 -20.7°
Drops below altitude 10° 12:54:06 10° 168° (SSE) 1,727 5.5 -20.0°
Sets 12:56:13 0° 170° (S) 2,608 6.4 -19.6°
